Friday, July 01, 2016
22:29 UTC
  |  Log In   |  Register Free
Airport Search:

Tracy Municipal Airport
(KTCY)

Tracy Municipal Airport Diagram
No Airport Diagram Available

FAA data valid effective May 26 2016 - Jul 21 2016 (unless otherwise noted).

 
 
 
 
 
 
 
 
 
 
 
 
 
 
Summary: Tracy Municipal (TCY)

Weather Summary


METAR for KTCY is not available. Closest METAR is for KLVK 18.0 nm SE
KLVK  (18.0 nm SE)   (most recent observation was updated at 12:15 UTC)
012153Z 28012G16KT 10SM CLR 33/12 A2982 RMK AO2 SLP094 T03280122

KMOD  (23.5 nm NW)   (most recent observation was updated at 12:15 UTC)
012153Z VRB04KT 10SM CLR 38/12 A2976 RMK AO2 SLP077 T03780117

TAF for KTCY is not available.
KSCK
011735Z 0118/0218 30008KT P6SM SKC

KLVK  (18.0 nm SE)   (most recent observation was updatred at 11:72 UTC)
011724Z 0118/0218 29005KT P6SM SKC FM012100 28012KT P6SM SKC FM020400 29006KT P6SM SKC FM021000 VRB03KT P6SM FEW013 FM021400 27004KT P6SM SCT012 FM021600 25005KT P6SM SKC


KSJC  (30.4 nm NE)   (most recent observation was updatred at 11:72 UTC)
011724Z 0118/0218 31006KT P6SM SKC FM012100 33011KT P6SM SKC FM020400 30006KT P6SM SKC FM020700 VRB05KT P6SM FEW012 FM021100 15007KT P6SM BKN011 FM021600 15005KT P6SM FEW011 SCT012 FM021700 VRB03KT P6SM FEW012
GlobalAir.com is loading additional information.
Current weather conditions are not available for TCY.

The nearest NOAA weather station is at SCK (13.7 nm NE from TCY)
 Current Weather at SCK
96.0 F° (35.6 C°)
Fair
Southwest winds at 8.1 mph
Pressure:
29.79 in
Humidity:
25%
Wind:
Southwest at 8.1 MPH (7 KT)
Dew Point:
55.0 F° (12.8 C°)
Visibility:
10.00 mi
TCY NOAA Radar

Runway Summary

ID Dimensions Surface Instrument Approaches
12/30 75 ft x 4001 ft Asphalt, Fair Condition RNAV (GPS) RWY 12
RNAV (GPS) RWY 12
RNAV (GPS) RWY 26
RNAV (GPS) RWY 30
VOR/DME RWY 26
08/26 75 ft x 3438 ft Asphalt, Fair Condition RNAV (GPS) RWY 12
RNAV (GPS) RWY 26
RNAV (GPS) RWY 30
VOR/DME RWY 26

Communications Summary


CTAF123.075
UNICOM123.075
ATISN/A
WX AWOS-3
NORCAL APPROACH123.85
NORCAL DEPARTURE123.85
CLEARANCE DELIVERYN/A

Terminal Procedures Summary


Approaches
More Approaches
Special Minimums

Closest Alternate Airports with Instrument Procedures

CA54 - 33 Strip - 5.5 nm SE from TCY

CA54 - 33 Strip - 5.5 nm SE from TCY

CA54 - 33 Strip - 5.5 nm SE from TCY

CA54 - 33 Strip - 5.5 nm SE from TCY

KC83 - Byron - 13.9 nm NW from TCY

KSCK - Stockton Metropolitan - 18 nm NE from TCY

KLVK - Livermore Municipal - 20.7 nm NW from TCY

CA17 - Peterson - 26.3 nm NE from TCY

CA17 - Peterson - 26.3 nm NE from TCY

KMOD - Modesto City-Co-Harry Sham Fld - 27.1 nm SE from TCY

Find All Airport Services Find A Hotel Find A Rental Car Find A Golf Course Find A Restaurant $100 Hamburger



FBO's on the Field
FBO Company Facility Photos Services Transportation Aviation Fuel Prices: Prices include tax
Catering Weather Repair Courtesy Rental Type 100LL JetA JetA+ MOGAS 8087
 
SkyView Aviation LLC

Currently rated 5 by 1 person
FS:Avfuel
Last Updated: Jun-27
Login to update fuel prices
SS:
Contact SkyView Aviation LLCMore FBO Information
 
Add another FBO Facility Photos Catering Weather Repair Courtesy Rental Type 100LL JetA JetA+ MOGAS 8087
Services Transportation Aviation Fuel Prices: Prices include tax


model-print
model-print
model-print
model-print